Location: Meriden
(44.0740°N, 93.3870°W)
Time: 12:26:44
(UTC-06:00)

Amateur Radio Satellites - All Passes

Search period start: 26 November 2014 11:56
Search period end: 27 November 2014 11:56
Location: Meriden, 44.0740°N, 93.3870°W

Satellite Date Start Highest point End Downlink Frequencies (MHz)
Time Altitude Azimuth
Oscar 19 26 Nov 11:56:47 12:01:05 28° 65° (ENE) 12:05:25 437.125/150
CUBEBUG 2 26 Nov 11:56:55 11:58:39 12° 299° (WNW) 12:00:23 437.445
HUMSAT D 26 Nov 12:09:46 12:12:32 17° 296° (WNW) 12:15:18 437.325/437.525
YUBILEINY 26 Nov 12:10:17 12:17:08 25° 63° (ENE) 12:23:56 435.215
SWISSCUBE 26 Nov 12:19:19 12:20:03 10° 87° (E) 12:20:46 437.505
ESTCUBE 1 26 Nov 12:31:42 12:35:34 28° 293° (WNW) 12:39:25 437.505/2401.250
VELOX 1 26 Nov 12:33:18 12:35:04 12° 301° (WNW) 12:36:50 145.980
AO-7 26 Nov 12:37:35 12:39:08 11° 36° (NE) 12:40:41 29.400- 29.500
CUSAT 1 26 Nov 12:41:23 12:43:47 30° 96° (E) 12:46:08 437.405
AUBIESAT-1 26 Nov 12:41:57 12:45:22 19° 96° (E) 12:48:42 437.475
TISAT 1 26 Nov 12:43:56 12:48:09 71° 286° (WNW) 12:52:19 437.305
M-CUBED/EXP-1 PRIME 26 Nov 12:47:09 12:51:01 23° 98° (E) 12:54:49 437.505
BEESAT 26 Nov 12:47:55 12:51:24 20° 92° (E) 12:54:52 436.000
ITAMSAT 1 26 Nov 12:50:20 12:55:02 35° 67° (ENE) 12:59:45 435.822/435.867
SPROUT 26 Nov 12:55:07 12:59:21 61° 286° (WNW) 13:03:33 437.525
DANDE 26 Nov 13:08:56 13:11:40 70° 99° (E) 13:14:16 436.750
CUBEBUG 1 26 Nov 13:11:01 13:12:51 13° 300° (WNW) 13:14:40 437.445
Gurwin Techsat 1B 26 Nov 13:24:52 13:29:50 42° 68° (ENE) 13:34:48 435.225
HORYU 2 26 Nov 13:25:20 13:28:12 17° 62° (ENE) 13:31:04 437.375
SO-50 26 Nov 13:27:46 13:31:48 26° 247° (WSW) 13:35:50 436.795
Oscar 19 26 Nov 13:35:32 13:40:16 38° 262° (W) 13:45:04 437.125/150
ITUPSAT 1 26 Nov 13:42:58 13:47:47 66° 102° (ESE) 13:52:32 437.325
SWISSCUBE 26 Nov 13:53:44 13:58:35 89° 284° (WNW) 14:03:22 437.505
STARS 26 Nov 14:02:34 14:05:14 16° 91° (E) 14:07:53 437.465
YUBILEINY 26 Nov 14:06:13 14:14:56 78° 265° (W) 14:23:35 435.215
AUBIESAT-1 26 Nov 14:15:49 14:20:40 59° 293° (WNW) 14:25:24 437.475
M-CUBED/EXP-1 PRIME 26 Nov 14:21:29 14:26:15 48° 295° (WNW) 14:30:55 437.505
AO-7 26 Nov 14:22:05 14:29:39 41° 59° (ENE) 14:37:15 29.400- 29.500
BEESAT 26 Nov 14:24:53 14:29:31 48° 289° (WNW) 14:34:06 436.000
ITAMSAT 1 26 Nov 14:29:55 14:34:32 32° 264° (W) 14:39:10 435.822/435.867
O/OREOS (USA 219) 26 Nov 14:38:44 14:42:19 23° 55° (NE) 14:45:54 437.305
PHONESAT 2.4 26 Nov 14:40:22 14:43:11 21° 156° (SSE) 14:46:01 2401.200-2431.200
KKS-1 26 Nov 14:42:59 14:47:24 61° 101° (ESE) 14:51:47 437.445
VERMONT LUNAR 26 Nov 14:48:57 14:52:03 27° 160° (SSE) 14:55:10 437.305
HORYU 2 26 Nov 15:00:08 15:04:28 53° 260° (W) 15:08:50 437.375
MaSat-1 26 Nov 15:03:29 15:06:24 58° 115° (ESE) 15:09:04 437.345
Gurwin Techsat 1B 26 Nov 15:05:27 15:09:55 27° 266° (W) 15:14:25 435.225
RS-15 26 Nov 15:15:00 15:24:48 40° 108° (ESE) 15:34:33 29.354- 29.394
ITUPSAT 1 26 Nov 15:22:13 15:25:09 16° 300° (WNW) 15:28:04 437.325
SWISSCUBE 26 Nov 15:33:54 15:35:41 12° 302° (WNW) 15:37:29 437.505
JAS-2 26 Nov 15:35:40 15:42:38 39° 63° (ENE) 15:49:43 435.910
STARS 26 Nov 15:37:45 15:42:02 52° 288° (WNW) 15:46:18 437.465
MOZHAYETS 4 26 Nov 15:54:10 15:55:09 11° 87° (E) 15:56:08
YUBILEINY 26 Nov 16:05:37 16:10:11 16° 286° (WNW) 16:14:44 435.215
AO-7 26 Nov 16:14:17 16:22:16 51° 259° (W) 16:30:20 29.400- 29.500
CUTE-I 26 Nov 16:16:17 16:19:50 18° 59° (ENE) 16:23:22 437.470
O/OREOS (USA 219) 26 Nov 16:17:41 16:21:53 40° 253° (WSW) 16:26:04 437.305
PHONESAT 2.4 26 Nov 16:17:58 16:21:32 44° 172° (S) 16:25:06 2401.200-2431.200
KKS-1 26 Nov 16:21:00 16:23:34 15° 299° (WNW) 16:26:08 437.445
VERMONT LUNAR 26 Nov 16:26:40 16:30:10 47° 177° (S) 16:33:41 437.305
Cubesat XI-IV 26 Nov 17:12:54 17:18:07 54° 70° (ENE) 17:23:20 437.490
JAS-2 26 Nov 17:19:57 17:27:22 52° 262° (W) 17:35:02 435.910
RS-15 26 Nov 17:25:44 17:36:34 65° 312° (NW) 17:47:31 29.354- 29.394
MOZHAYETS 4 26 Nov 17:28:18 17:33:00 84° 285° (WNW) 17:37:39
CUTE-I 26 Nov 17:53:59 17:59:20 70° 257° (WSW) 18:04:42 437.470
PHONESAT 2.4 26 Nov 17:56:31 18:00:04 43° 189° (S) 18:03:36 2401.200-2431.200
GONETS M04 26 Nov 18:00:21 18:07:40 28° 65° (ENE) 18:14:54
HO-68 26 Nov 18:01:58 18:05:10 14° 47° (NE) 18:08:22 435.675
VERMONT LUNAR 26 Nov 18:05:01 18:08:22 35° 194° (SSW) 18:11:42 437.305
STRAND 1 26 Nov 18:21:26 18:25:42 26° 94° (E) 18:29:55 437.568
PRISM 26 Nov 18:25:55 18:30:11 75° 103° (ESE) 18:34:24 437.425
Cubesat XI-IV 26 Nov 18:54:28 18:58:31 21° 268° (W) 19:02:34 437.490
MOZHAYETS 4 26 Nov 19:08:23 19:09:26 11° 302° (WNW) 19:10:30
CUBESAT XI-V 26 Nov 19:11:41 19:16:23 87° 103° (ESE) 19:21:02 437.345
SEEDS 26 Nov 19:13:41 19:16:02 15° 63° (ENE) 19:18:23 437.485
BEESAT 3 26 Nov 19:23:06 19:26:20 23° 113° (ESE) 19:29:38 437.485
BRITE-PL 26 Nov 19:23:13 19:27:05 24° 67° (ENE) 19:30:44 437.365/2234.400
AAUSAT CUBESAT 2 26 Nov 19:28:45 19:31:18 16° 63° (ENE) 19:33:51 437.432
AIST 1 26 Nov 19:32:55 19:37:14 61° 95° (E) 19:41:37
PCSat 26 Nov 19:34:20 19:39:40 64° 117° (ESE) 19:45:03 145.827
PHONESAT 2.4 26 Nov 19:35:39 19:38:22 19° 205° (SSW) 19:41:05 2401.200-2431.200
BEESAT 2 26 Nov 19:38:44 19:42:20 30° 115° (ESE) 19:46:00 435.950
CANX-2 26 Nov 19:41:05 19:44:53 34° 70° (ENE) 19:48:43 2200.000
RS-15 26 Nov 19:42:32 19:51:36 29° 342° (NNW) 20:00:52 29.354- 29.394
COMPASS 1 26 Nov 19:43:34 19:46:59 25° 67° (ENE) 19:50:25 437.405
DOVE 4 26 Nov 19:43:47 19:47:01 20° 66° (ENE) 19:50:09 437.250
HO-68 26 Nov 19:44:25 19:51:27 60° 68° (ENE) 19:58:30 435.675
VERMONT LUNAR 26 Nov 19:44:29 19:46:14 13° 210° (SSW) 19:47:59 437.305
DX 1 26 Nov 19:46:53 19:49:05 14° 60° (ENE) 19:51:17 434.975-435.025
GONETS M04 26 Nov 19:56:32 20:05:19 71° 267° (W) 20:14:00
STRAND 1 26 Nov 20:00:14 20:05:01 41° 292° (WNW) 20:09:44 437.568
PRISM 26 Nov 20:03:32 20:05:08 12° 300° (WNW) 20:06:43 437.425
CINEMA 3 26 Nov 20:13:37 20:17:03 24° 67° (ENE) 20:20:26 145.822/145.860
CUTE 1.7 + AOD 2 26 Nov 20:15:10 20:19:22 74° 75° (ENE) 20:23:37 437.475
AIST 2 26 Nov 20:16:20 20:20:14 37° 117° (ESE) 20:24:11 435.215
ZACube-1 26 Nov 20:16:39 20:18:17 12° 61° (ENE) 20:19:55 437.345
VELOX 1 26 Nov 20:21:55 20:22:32 10° 58° (ENE) 20:23:09 145.980
GOMX 1 26 Nov 20:27:47 20:32:31 72° 75° (ENE) 20:36:57 467.674
UKube-1 26 Nov 20:44:11 20:48:22 48° 71° (ENE) 20:52:35 .
AISAT 26 Nov 20:45:56 20:49:00 19° 63° (ENE) 20:52:05 437.250
SEEDS 26 Nov 20:47:18 20:51:25 56° 260° (W) 20:55:35 437.485
FUNcube-1 26 Nov 20:49:22 20:52:49 26° 68° (ENE) 20:56:16 145.935
CUBESAT XI-V 26 Nov 20:51:23 20:53:07 12° 301° (WNW) 20:54:50 437.345
Oscar 11 26 Nov 20:54:46 20:59:02 68° 74° (ENE) 21:03:20 145.826/435.025
BEESAT 3 26 Nov 21:00:28 21:04:21 39° 311° (NW) 21:08:19 437.485
BRITE-PL 26 Nov 21:00:45 21:05:26 40° 262° (W) 21:09:48 437.365/2234.400
AAUSAT CUBESAT 2 26 Nov 21:02:33 21:06:35 50° 261° (W) 21:10:40 437.432
DELFI C3 26 Nov 21:03:28 21:07:31 71° 75° (ENE) 21:11:36 145.870
50 SAT 26 Nov 21:10:57 21:14:05 22° 67° (ENE) 21:17:13 437.505
AIST 1 26 Nov 21:13:05 21:15:22 14° 293° (WNW) 21:17:38
UWE-3 26 Nov 21:16:49 21:20:58 59° 74° (ENE) 21:25:05 435.000/436.395/437.385
BEESAT 2 26 Nov 21:16:51 21:20:35 32° 314° (NW) 21:24:22 435.950
CANX-2 26 Nov 21:17:37 21:20:55 22° 267° (W) 21:24:14 2200.000
CUBEBUG 2 26 Nov 21:18:18 21:22:32 72° 75° (ENE) 21:26:42 437.445
COMPASS 1 26 Nov 21:18:56 21:22:36 30° 264° (W) 21:26:19 437.405
PCSat 26 Nov 21:19:08 21:23:32 25° 317° (NW) 21:27:57 145.827
DOVE 4 26 Nov 21:20:12 21:24:34 43° 261° (W) 21:28:44 437.250
DX 1 26 Nov 21:20:26 21:24:47 68° 258° (WSW) 21:29:11 434.975-435.025
HUMSAT D 26 Nov 21:27:02 21:30:53 39° 71° (ENE) 21:34:44 437.325/437.525
HO-68 26 Nov 21:33:33 21:39:33 28° 266° (W) 21:45:36 435.675
ANTELSAT 26 Nov 21:42:08 21:43:55 12° 89° (E) 21:45:42 437.575/2403.000
ZACube-1 26 Nov 21:49:57 21:54:08 69° 258° (WSW) 21:58:18 437.345
CINEMA 3 26 Nov 21:50:12 21:54:09 33° 263° (W) 21:58:00 145.822/145.860
VELOX 1 26 Nov 21:53:54 21:58:23 85° 75° (ENE) 22:02:53 145.980
AIST 2 26 Nov 21:55:14 21:58:56 28° 315° (NW) 22:02:41 435.215
CUTE 1.7 + AOD 2 26 Nov 21:55:18 21:55:49 10° 272° (W) 21:56:21 437.475
ESTCUBE 1 26 Nov 21:56:00 22:00:08 35° 69° (ENE) 22:04:17 437.505/2401.250
GONETS M04 26 Nov 21:56:27 22:00:23 14° 288° (WNW) 22:04:19
DUCHIFAT 1 26 Nov 21:57:53 21:58:54 11° 89° (E) 21:59:54 145.980
RS-15 26 Nov 21:59:28 22:08:39 29° 18° (NNE) 22:18:04 29.354- 29.394
TISAT 1 26 Nov 22:05:28 22:06:54 12° 60° (ENE) 22:08:20 437.305
GOMX 1 26 Nov 22:09:16 22:11:03 12° 270° (W) 22:12:48 467.674
NANOSAT C BR1 26 Nov 22:15:50 22:18:43 18° 92° (E) 22:21:34 145.865
SPROUT 26 Nov 22:17:16 22:19:24 14° 61° (ENE) 22:21:32 437.525
AISAT 26 Nov 22:20:56 22:25:17 49° 260° (W) 22:29:39 437.250
UKube-1 26 Nov 22:21:59 22:24:48 17° 268° (W) 22:27:39 .
FUNcube-1 26 Nov 22:25:27 22:29:06 29° 264° (W) 22:32:45 145.935
QB50P1 26 Nov 22:25:29 22:28:50 22° 94° (E) 22:32:10 145.935-145.965
CUBEBUG 1 26 Nov 22:30:17 22:34:43 75° 75° (ENE) 22:39:10 437.445
BUGSAT 1 26 Nov 22:31:38 22:34:44 21° 94° (E) 22:37:48 437.445
TIGRISAT 26 Nov 22:33:48 22:37:59 40° 98° (E) 22:42:15 435.000
Oscar 11 26 Nov 22:34:08 22:35:41 12° 271° (W) 22:37:13 145.826/435.025
50 SAT 26 Nov 22:45:38 22:49:15 31° 263° (W) 22:52:53 437.505
UNISAT 6 26 Nov 22:47:51 22:52:15 58° 101° (E) 22:56:44 437.425
POPSAT HIP 1 26 Nov 22:49:57 22:53:57 41° 98° (E) 22:57:56 437.405
UWE-3 26 Nov 22:56:05 22:57:54 13° 270° (W) 22:59:43 435.000/436.395/437.385
CUBEBUG 2 26 Nov 22:59:04 22:59:43 10° 271° (W) 23:00:22 437.445
HUMSAT D 26 Nov 23:04:00 23:06:52 18° 267° (W) 23:09:45 437.325/437.525
CUSAT 1 26 Nov 23:15:38 23:20:04 44° 77° (ENE) 23:25:55 437.405
ANTELSAT 26 Nov 23:16:44 23:21:10 71° 286° (WNW) 23:25:42 437.575/2403.000
ISS 26 Nov 23:17:04 23:20:14 46° 142° (SE) 23:23:24 145.825
ITUPSAT 1 26 Nov 23:17:04 23:18:57 12° 58° (ENE) 23:20:50 437.325
POLYITAN 1 26 Nov 23:23:57 23:28:12 82° 284° (WNW) 23:32:25 437.675
QB50P2 26 Nov 23:25:36 23:29:50 79° 285° (WNW) 23:34:04 145.880/145.840
SWISSCUBE 26 Nov 23:26:24 23:29:21 16° 60° (ENE) 23:32:17 437.505
DUCHIFAT 1 26 Nov 23:31:03 23:35:15 70° 286° (WNW) 23:39:26 145.980
AUBIESAT-1 26 Nov 23:32:37 23:36:10 27° 60° (ENE) 23:39:59 437.475
ESTCUBE 1 26 Nov 23:33:20 23:37:04 25° 266° (W) 23:40:50 437.505/2401.250
TISAT 1 26 Nov 23:37:51 23:42:08 78° 257° (WSW) 23:46:25 437.305
M-CUBED/EXP-1 PRIME 26 Nov 23:38:17 23:42:01 33° 62° (ENE) 23:46:05 437.505
DANDE 26 Nov 23:45:32 23:49:59 69° 79° (E) 23:56:03 436.750
SPROUT 26 Nov 23:50:41 23:54:58 66° 259° (WSW) 23:59:17 437.525
NANOSAT C BR1 26 Nov 23:50:49 23:54:48 42° 289° (WNW) 23:58:47 145.865
BEESAT 26 Nov 23:55:56 23:59:58 28° 66° (ENE) 00:04:01 436.000
QB50P1 27 Nov 00:01:00 00:04:48 33° 291° (WNW) 00:08:36 145.935-145.965
BUGSAT 1 27 Nov 00:06:38 00:10:20 33° 291° (WNW) 00:13:59 437.445
CUBEBUG 1 27 Nov 00:10:18 00:11:37 11° 271° (W) 00:12:56 437.445
TIGRISAT 27 Nov 00:11:10 00:14:31 22° 295° (WNW) 00:17:55 435.000
RS-15 27 Nov 00:12:43 00:23:48 63° 48° (NE) 00:35:21 29.354- 29.394
UNISAT 6 27 Nov 00:25:55 00:28:37 16° 297° (WNW) 00:31:21 437.425
POPSAT HIP 1 27 Nov 00:26:34 00:29:35 19° 295° (WNW) 00:32:36 437.405
MaSat-1 27 Nov 00:40:30 00:42:40 35° 246° (WSW) 00:44:54 437.345
ITUPSAT 1 27 Nov 00:51:16 00:56:06 89° 75° (ENE) 01:00:57 437.325
ISS 27 Nov 00:53:55 00:56:58 34° 341° (NNW) 01:00:01 145.825
CUSAT 1 27 Nov 00:59:15 01:03:08 24° 266° (W) 01:07:55 437.405
STARS 27 Nov 01:01:34 01:04:33 18° 63° (ENE) 01:07:32 437.465
SWISSCUBE 27 Nov 01:01:54 01:06:41 66° 258° (WSW) 01:11:30 437.505
ITAMSAT 1 27 Nov 01:05:07 01:05:25 10° 87° (E) 01:05:43 435.822/435.867
AUBIESAT-1 27 Nov 01:07:21 01:11:03 32° 260° (W) 01:15:04 437.475
M-CUBED/EXP-1 PRIME 27 Nov 01:13:42 01:17:08 25° 262° (W) 01:20:51 437.505
YUBILEINY 27 Nov 01:14:17 01:21:06 26° 80° (E) 01:27:54 435.215
DANDE 27 Nov 01:30:45 01:33:22 15° 269° (W) 01:36:21 436.750
BEESAT 27 Nov 01:33:17 01:37:40 36° 263° (W) 01:42:06 436.000
Gurwin Techsat 1B 27 Nov 01:40:58 01:43:48 14° 89° (E) 01:46:36 435.225
KKS-1 27 Nov 01:42:40 01:47:05 67° 74° (ENE) 01:51:30 437.445
Oscar 19 27 Nov 01:45:02 01:50:11 67° 102° (ESE) 01:55:20 437.125/150
RS-15 27 Nov 02:25:32 02:35:48 43° 251° (WSW) 02:46:31 29.354- 29.394
ISS 27 Nov 02:31:40 02:34:16 21° 1° (N) 02:36:52 145.825
ITUPSAT 1 27 Nov 02:33:53 02:34:40 10° 273° (W) 02:35:27 437.325
STARS 27 Nov 02:36:25 02:40:41 49° 260° (W) 02:44:58 437.465
PCSat 27 Nov 02:38:35 02:41:48 16° 35° (NE) 02:45:01 145.827
ITAMSAT 1 27 Nov 02:40:29 02:45:42 83° 104° (ESE) 02:50:52 435.822/435.867
HORYU 2 27 Nov 02:50:37 02:54:24 26° 95° (E) 02:58:11 437.375
MOZHAYETS 4 27 Nov 02:57:28 02:59:40 13° 60° (ENE) 03:01:53
YUBILEINY 27 Nov 03:08:17 03:17:04 72° 281° (W) 03:25:52 435.215
Gurwin Techsat 1B 27 Nov 03:19:02 03:24:21 77° 286° (WNW) 03:29:38 435.225
KKS-1 27 Nov 03:22:14 03:24:11 13° 270° (W) 03:26:08 437.445
Oscar 19 27 Nov 03:25:35 03:29:00 18° 300° (WNW) 03:32:25 437.125/150
BEESAT 3 27 Nov 03:41:04 03:44:40 27° 44° (NE) 03:48:15 437.485
SO-50 27 Nov 03:43:01 03:47:31 76° 123° (ESE) 03:52:12 436.795
BEESAT 2 27 Nov 03:57:19 04:01:11 33° 47° (NE) 04:04:59 435.950
ISS 27 Nov 04:08:28 04:11:33 36° 21° (NNE) 04:14:38 145.825
AO-7 27 Nov 04:13:40 04:21:49 53° 102° (ESE) 04:29:55 29.400- 29.500
PCSat 27 Nov 04:20:49 04:26:15 70° 57° (ENE) 04:31:38 145.827
ITAMSAT 1 27 Nov 04:21:41 04:24:30 15° 302° (WNW) 04:27:19 435.822/435.867
HORYU 2 27 Nov 04:27:05 04:31:06 33° 292° (WNW) 04:35:07 437.375
JAS-2 27 Nov 04:29:42 04:35:24 26° 89° (E) 04:40:33 435.910
MOZHAYETS 4 27 Nov 04:31:41 04:36:16 76° 258° (WSW) 04:40:55
AIST 2 27 Nov 04:36:50 04:40:57 41° 49° (NE) 04:44:59 435.215
CUBESAT XI-V 27 Nov 04:42:17 04:44:22 13° 59° (ENE) 04:46:27 437.345
O/OREOS (USA 219) 27 Nov 04:53:25 04:56:28 18° 101° (E) 04:59:32 437.305
Gurwin Techsat 1B 27 Nov 05:01:31 05:03:25 12° 305° (NW) 05:05:19 435.225
YUBILEINY 27 Nov 05:10:39 05:15:41 16° 304° (NW) 05:20:44 435.215
PRISM 27 Nov 05:18:05 05:22:16 68° 74° (ENE) 05:26:30 437.425
BEESAT 3 27 Nov 05:19:06 05:23:00 37° 243° (WSW) 05:26:50 437.485
SO-50 27 Nov 05:25:18 05:28:38 19° 323° (NW) 05:32:03 436.795
Cubesat XI-IV 27 Nov 05:29:44 05:33:25 19° 91° (E) 05:37:04 437.490
BEESAT 2 27 Nov 05:35:45 05:39:24 29° 245° (WSW) 05:42:59 435.950
STRAND 1 27 Nov 05:38:34 05:43:26 44° 69° (ENE) 05:48:19 437.568
AIST 1 27 Nov 05:39:41 05:42:45 18° 69° (ENE) 05:45:47
ISS 27 Nov 05:45:06 05:48:14 41° 219° (SW) 05:51:22 145.825
PCSat 27 Nov 06:05:30 06:09:04 18° 255° (WSW) 06:12:37 145.827
AO-7 27 Nov 06:06:49 06:14:23 40° 301° (WNW) 06:21:57 29.400- 29.500
CUTE-I 27 Nov 06:09:49 06:14:52 41° 98° (E) 06:19:51 437.470
JAS-2 27 Nov 06:13:59 06:20:59 59° 291° (WNW) 06:27:09 435.910
AIST 2 27 Nov 06:15:56 06:19:22 24° 247° (WSW) 06:22:46 435.215
CUBESAT XI-V 27 Nov 06:16:25 06:21:09 83° 257° (WSW) 06:25:54 437.345
O/OREOS (USA 219) 27 Nov 06:31:11 06:35:30 47° 298° (WNW) 06:39:50 437.305
PRISM 27 Nov 06:56:59 06:58:17 11° 271° (W) 06:59:36 437.425
GONETS M04 27 Nov 07:04:10 07:11:20 29° 81° (E) 07:18:32
Cubesat XI-IV 27 Nov 07:08:40 07:13:55 60° 289° (WNW) 07:19:08 437.490
AIST 1 27 Nov 07:16:30 07:20:39 42° 268° (W) 07:24:44
STRAND 1 27 Nov 07:18:40 07:22:48 24° 266° (W) 07:26:58 437.568
CUTE-I 27 Nov 07:50:16 07:54:44 28° 296° (WNW) 07:59:12 437.470
CUTE 1.7 + AOD 2 27 Nov 08:01:25 08:02:59 12° 89° (E) 08:04:34 437.475
JAS-2 27 Nov 08:01:35 08:04:22 13° 313° (NW) 08:07:04 435.910
AO-7 27 Nov 08:03:46 08:04:51 10° 325° (NW) 08:05:56 29.400- 29.500
GOMX 1 27 Nov 08:29:12 08:31:49 16° 92° (E) 08:34:28 467.674
SEEDS 27 Nov 08:31:15 08:34:35 22° 93° (E) 08:37:53 437.485
Oscar 11 27 Nov 08:43:13 08:44:30 11° 89° (E) 08:45:48 145.826/435.025
ANTELSAT 27 Nov 08:43:34 08:45:37 13° 61° (ENE) 08:47:42 437.575/2403.000
AAUSAT CUBESAT 2 27 Nov 08:45:15 08:48:38 23° 94° (E) 08:52:01 437.432
POLYITAN 1 27 Nov 08:47:26 08:47:41 10° 59° (ENE) 08:47:57 437.675
QB50P2 27 Nov 08:48:20 08:49:07 10° 59° (ENE) 08:49:54 145.880/145.840
DUCHIFAT 1 27 Nov 08:52:45 08:54:11 12° 60° (ENE) 08:55:37 145.980
HO-68 27 Nov 08:57:57 09:04:59 54° 101° (E) 09:11:56 435.675
GONETS M04 27 Nov 08:58:44 09:07:28 66° 282° (WNW) 09:16:18
CANX-2 27 Nov 09:00:37 09:04:51 56° 100° (E) 09:09:05 2200.000
COMPASS 1 27 Nov 09:01:06 09:05:05 38° 98° (E) 09:09:03 437.405
BRITE-PL 27 Nov 09:03:45 09:07:49 52° 100° (E) 09:11:55 437.365/2234.400
UWE-3 27 Nov 09:08:09 09:08:53 10° 89° (E) 09:09:38 435.000/436.395/437.385
DX 1 27 Nov 09:08:31 09:11:32 18° 93° (E) 09:14:31 434.975-435.025
CUBEBUG 2 27 Nov 09:09:40 09:11:41 13° 90° (E) 09:13:42 437.445
NANOSAT C BR1 27 Nov 09:10:47 09:13:38 18° 64° (ENE) 09:16:30 145.865
DOVE 4 27 Nov 09:17:37 09:21:33 39° 98° (E) 09:25:36 437.250
QB50P1 27 Nov 09:20:23 09:23:40 22° 66° (ENE) 09:26:57 145.935-145.965
BUGSAT 1 27 Nov 09:23:46 09:26:53 20° 65° (ENE) 09:29:59 437.445
TIGRISAT 27 Nov 09:34:31 09:38:31 42° 71° (ENE) 09:42:32 435.000
CUTE 1.7 + AOD 2 27 Nov 09:35:06 09:39:22 67° 286° (WNW) 09:43:38 437.475
ZACube-1 27 Nov 09:38:01 09:41:07 20° 93° (E) 09:44:16 437.345
CINEMA 3 27 Nov 09:43:02 09:47:07 46° 99° (E) 09:51:19 145.822/145.860
POPSAT HIP 1 27 Nov 09:44:35 09:48:32 38° 70° (ENE) 09:52:29 437.405
VELOX 1 27 Nov 09:45:00 09:47:26 14° 91° (E) 09:49:51 145.980
UNISAT 6 27 Nov 09:48:45 09:52:57 61° 73° (ENE) 09:57:11 437.425
GOMX 1 27 Nov 10:06:15 10:10:13 44° 288° (WNW) 10:14:16 467.674
SEEDS 27 Nov 10:06:36 10:10:30 35° 290° (WNW) 10:14:24 437.485
UKube-1 27 Nov 10:06:36 10:10:57 74° 103° (ESE) 10:15:16 .
AISAT 27 Nov 10:11:06 10:14:54 27° 96° (E) 10:18:40 437.250
FUNcube-1 27 Nov 10:11:57 10:16:01 44° 99° (E) 10:20:09 145.935
Oscar 11 27 Nov 10:16:49 10:21:10 72° 285° (WNW) 10:25:30 145.826/435.025
ANTELSAT 27 Nov 10:17:41 10:21:55 65° 259° (WSW) 10:26:11 437.575/2403.000
DELFI C3 27 Nov 10:18:09 10:22:18 79° 284° (WNW) 10:26:26 145.870
POLYITAN 1 27 Nov 10:18:42 10:22:58 89° 258° (WSW) 10:27:14 437.675
QB50P2 27 Nov 10:20:07 10:24:23 86° 256° (WSW) 10:28:39 145.880/145.840
CUBEBUG 1 27 Nov 10:20:08 10:21:58 12° 89° (E) 10:23:47 437.445
AAUSAT CUBESAT 2 27 Nov 10:20:34 10:24:23 33° 291° (WNW) 10:28:11 437.432
50 SAT 27 Nov 10:24:57 10:28:34 30° 96° (E) 10:32:11 437.505
DUCHIFAT 1 27 Nov 10:25:12 10:29:27 78° 257° (WSW) 10:33:43 145.980
SO-50 27 Nov 10:33:22 10:36:55 20° 37° (NE) 10:40:29 436.795
COMPASS 1 27 Nov 10:37:24 10:40:35 21° 294° (WNW) 10:43:46 437.405
CANX-2 27 Nov 10:37:51 10:40:22 15° 297° (WNW) 10:42:53 2200.000
UWE-3 27 Nov 10:41:40 10:45:55 74° 285° (WNW) 10:50:15 435.000/436.395/437.385
BRITE-PL 27 Nov 10:43:39 10:45:58 15° 297° (WNW) 10:48:18 437.365/2234.400
DX 1 27 Nov 10:43:51 10:48:00 44° 290° (WNW) 10:52:06 434.975-435.025
CUBEBUG 2 27 Nov 10:44:34 10:48:45 60° 286° (WNW) 10:53:02 437.445
NANOSAT C BR1 27 Nov 10:45:06 10:49:12 46° 261° (W) 10:53:18 145.865
HUMSAT D 27 Nov 10:45:38 10:49:48 64° 101° (E) 10:53:59 437.325/437.525
HO-68 27 Nov 10:46:08 10:52:23 34° 300° (WNW) 10:58:35 435.675
QB50P1 27 Nov 10:55:27 10:59:22 36° 262° (W) 11:03:18 145.935-145.965
DOVE 4 27 Nov 10:56:08 10:59:07 19° 294° (WNW) 11:02:10 437.250
BUGSAT 1 27 Nov 10:58:08 11:02:08 40° 262° (W) 11:06:08 437.445
GONETS M04 27 Nov 11:01:51 11:06:20 15° 306° (NW) 11:10:51
TIGRISAT 27 Nov 11:12:34 11:15:29 18° 268° (W) 11:18:25 435.000
ZACube-1 27 Nov 11:13:42 11:17:39 39° 289° (WNW) 11:21:40 437.345
VELOX 1 27 Nov 11:20:03 11:24:24 57° 288° (WNW) 11:28:43 145.980
CINEMA 3 27 Nov 11:21:14 11:24:03 18° 295° (WNW) 11:26:54 145.822/145.860
POPSAT HIP 1 27 Nov 11:21:26 11:24:35 20° 267° (W) 11:27:44 437.405
YUBILEINY 27 Nov 11:22:24 11:26:27 14° 53° (NE) 11:30:28 435.215
TISAT 1 27 Nov 11:23:03 11:25:29 15° 91° (E) 11:27:54 437.305
ESTCUBE 1 27 Nov 11:23:50 11:28:21 62° 101° (E) 11:32:50 437.505/2401.250
Oscar 19 27 Nov 11:26:49 11:29:50 16° 59° (ENE) 11:32:52 437.125/150
UNISAT 6 27 Nov 11:28:21 11:30:11 13° 270° (W) 11:32:01 437.425
SPROUT 27 Nov 11:37:02 11:40:08 19° 93° (E) 11:43:13 437.525
UKube-1 27 Nov 11:44:40 11:46:32 13° 300° (WNW) 11:48:25 .
AISAT 27 Nov 11:47:39 11:51:31 30° 293° (WNW) 11:55:21 437.250
FUNcube-1 27 Nov 11:49:09 11:52:05 19° 295° (WNW) 11:55:03 145.935
